Regional Weather Roundup
Issued by NWS Burlington, VT

Home | Current Version | Previous Version | Text Only | Print | Product List | Glossary On
Versions: 1 2 3 4 5 6 7 8 9 10 11 12 13 14 15 16 17 18 19 20 21 22 23 24 25 26 27 28 29 30 31 32 33 34 35 36 37 38 39 40 41 42 43 44 45 46 47 48 49 50
000
ASUS41 KBTV 281830
RWRBTV
VERMONT REGIONAL WEATHER ROUNDUP
NATIONAL WEATHER SERVICE BURLINGTON VT
100 PM EST WED JAN 28 2015

NOTE: "FAIR" INDICATES FEW OR NO CLOUDS BELOW 12,000 FEET WITH NO
SIGNIFICANT WEATHER AND/OR OBSTRUCTIONS TO VISIBILITY.

* THESE REPORTS ARE NOT UNDER NWS QUALITY CONTROL AND/OR DO NOT
  REPORT WEATHER SUCH AS PRECIPITATION AND FOG.

VTZ001>019-281900-
_____VERMONT_____


CITY           SKY/WX    TMP DP  RH WIND       PRES   REMARKS
BURLINGTON     FAIR      15  -7  37 N9        30.15R
6HR MIN TEMP:   7; 6HR MAX TEMP:  15;

MONTPELIER     FAIR      11  -1  58 NW7       30.04F
6HR MIN TEMP:   4; 6HR MAX TEMP:  11;

MORRISVILLE    FAIR      15  -3  44 N14       30.07S WCI   0
6HR MIN TEMP:   5; 6HR MAX TEMP:  15; 6HR PCP: TRACE;

ST. JOHNSBURY*   N/A     16   2  54 MISG      30.02S
6HR MIN TEMP:   7; 6HR MAX TEMP:  16;

MIDDLEBURY*    FAIR      17  -5  37 N13G18    30.11S WCI   3
6HR MIN TEMP:   7; 6HR MAX TEMP:  16;

RUTLAND*       FAIR     N/A N/A N/A NW12G18   30.05F
SPRINGFIELD    FAIR      20   4  50 VRB5      30.02S
6HR MIN TEMP:  11; 6HR MAX TEMP:  20; 6HR PCP:  0.04;

HIGHGATE*      FAIR      15  -4  43 N5        30.16S
6HR MIN TEMP:   6; 6HR MAX TEMP:  14;

NEWPORT*       FAIR      11  -3  52 NW10G18   30.05S WCI  -2
6HR MIN TEMP:   4; 6HR MAX TEMP:  10;

BENNINGTON     CLOUDY    15   2  56 NW9       30.06S
6HR MIN TEMP:   8; 6HR MAX TEMP:  16; 6HR PCP: TRACE;

SUTTON*          N/A     10 N/A N/A MISG        N/A
GALLUP MILLS*    N/A     14 N/A N/A MISG        N/A
UNION VILLAGE*   N/A     18 N/A N/A MISG        N/A
MT. MANSFIELD*   N/A     10 N/A N/A CALM        N/A

_____LAKE CHAMPLAIN_____


CITY           SKY/WX    TMP DP  RH WIND       PRES   REMARKS
BURTON ISLAND*   N/A     19  -4  35 N3          N/A
COLCHESTER RF*   N/A     16   0  48 E18         N/A  WCI  -1
DIAMOND ISL*     N/A     18   1  49 N14         N/A  WCI   4

$$

NYZ007-026>031-035-052-083-281900-
_____NORTHERN NEW YORK_____


CITY           SKY/WX    TMP DP  RH WIND       PRES   REMARKS
PLATTSBURGH    FAIR      18  -4  37 N12       30.15R WCI   5
6HR MIN TEMP:   6; 6HR MAX TEMP:  19;

SARANAC LAKE   FAIR      16  -6  37 VRB6      30.03S
6HR MIN TEMP:   0; 6HR MAX TEMP:  17;

MASSENA        FAIR      12  -8  40 W9        30.24S
6HR MIN TEMP:   2; 6HR MAX TEMP:  12;

OGDENSBURG*    CLEAR     21  -8  27 W3        30.22F
POTSDAM*       CLEAR     12  -2  52 SW7       30.21F
STARK FALLS*     N/A     16 N/A N/A NW6         N/A
WATERTOWN        N/A    N/A N/A N/A MISG      30.25F
FT DRUM        FAIR      12 -11  35 VRB5      30.21R
6HR MIN TEMP:   0; 6HR MAX TEMP:  13; 6HR PCP: TRACE;

ALBANY         FAIR      19   0  43 NW12      30.13S WCI   7
6HR MIN TEMP:  11; 6HR MAX TEMP:  19; 6HR PCP: TRACE;

GLENS FALLS    FAIR      17   4  56 CALM      30.12F
6HR MIN TEMP:   9; 6HR MAX TEMP:  17; 6HR PCP: TRACE;


$$
NHZ002-005-011-281900-
_____NEW HAMPSHIRE_____


CITY           SKY/WX    TMP DP  RH WIND       PRES   REMARKS
LEBANON        FAIR      19   5  54 N13G20    30.02S WCI   6
6HR MIN TEMP:   9; 6HR MAX TEMP:  19;

KEENE          FAIR      19   5  53 NW10      30.00R WCI   8
6HR MIN TEMP:  10; 6HR MAX TEMP:  19; 6HR PCP:  0.03;

MT WASHINGTON  BLWGSNOW   7   7 100 N39G48      N/A  VSB 1/16WCI -19
6HR MIN TEMP:   0; 6HR MAX TEMP:   6;

PLYMOUTH       FAIR      20   9  63 W12G18    29.97F WCI   8
6HR MIN TEMP:  10; 6HR MAX TEMP:  19;

WHITEFIELD     MOCLDY    13   3  64 CALM      29.98F
6HR MIN TEMP:   7; 6HR MAX TEMP:  15;


$$

_____REGIONAL QUEBEC LOCATIONS_____


CITY           SKY/WX    TMP DP  RH WIND       PRES   REMARKS
MONTREAL       PTCLDY    14  -2  48 SW12      30.18S WCI   0
QUEBEC CITY    PTCLDY    12  -2  52 SW14G21   30.03F WCI  -3
SHERBROOKE     LGT SNOW   9  -4  56 W18       30.04S WCI -10

_____REGIONAL ONTARIO LOCATIONS_____


CITY           SKY/WX    TMP DP  RH WIND       PRES   REMARKS
OTTAWA         PTCLDY    14  -6  41 W10       30.22S WCI   1

______KEY______
VSB  - VISIBILITY IN MILES
WCI  - WIND CHILL INDEX
HX   - HEAT INDEX
$$
NNNN



USA.gov is the U.S. government's official web portal to all federal, state and local government web resources and services.